Weather History for Billings, MT

Change the Weather History Date:

Saturday, January 28, 2012

  Actual Average Record
Temperature  
Mean Temperature 33 °F 28 °F  
Max Temperature 39 °F 37 °F 63 °F (1967)
Min Temperature 27 °F 19 °F -22 °F (1951)
Degree Days  
Heating Degree Days 32 37  
Month to date heating degree days 1000 1064  
Since 1 July heating degree days 3439 3885  
Cooling Degree Days 0 0  
Month to date cooling degree days 0 0  
Year to date cooling degree days 0 0  
Moisture  
Dew Point 8 °F    
Average Humidity 39    
Maximum Humidity 47    
Minimum Humidity 31    
Precipitation  
Precipitation 0.00 in 0.01 in 0.25 in (1968)
Month to date precipitation 0.61 0.43  
Year to date precipitation 0.61 0.43  
Snow  
Snow 0.00 in 0.30 in 2.70 in (1968)
Month to date snowfall 15.6 7.7  
Since 1 July snowfall 24.9 27.6  
Snow Depth 0.00 in    
Sea Level Pressure  
Sea Level Pressure 30.21 in    
Wind  
Wind Speed 12 mph (West)    
Max Wind Speed 24 mph    
Max Gust Speed 31 mph    
Visibility 10 miles    
Events      
T = Trace of Precipitation, MM = Missing Value Source: NWS Daily Summary

Daily Weather History Graph

Daily Weather History Graph

Search for Another Location

Airport:

Trip Planner

Search our weather history database for the weather conditions in past years. The results will help you decide how hot, cold, wet, or windy it might be!

Date:

Astronomy

Jan. 28, 2012 Rise Set
Actual Time 7:40 AM MST 5:13 PM MST
Civil Twilight 7:08 AM MST 5:45 PM MST
Nautical Twilight 6:32 AM MST 6:21 PM MST
Astronomical Twilight 5:57 AM MST 6:56 PM MST
Moon 9:43 AM MST (1/28) 11:28 PM MST (1/28)
Length of Visible Light 10h 37m
Length of Day
9h 32m
Waxing Crescent, 28% of the Moon is Illuminated
Jan 28
Waxing Crescent
Jan 30
First Quarter
Feb 7
Full
Feb 14
Last Quarter
Feb 21
New

Hourly Weather History & Observations

Time (MST) Temp. Windchill Dew Point Humidity Pressure Visibility Wind Dir Wind Speed Gust Speed Precip Events Conditions
12:53 AM 27.0 °F 16.1 °F 3.9 °F 37% 30.25 in 10.0 mi NW 12.7 mph - N/A   Clear
1:53 AM 28.9 °F 16.5 °F 1.9 °F 32% 30.24 in 10.0 mi WNW 18.4 mph - N/A   Clear
2:53 AM 28.9 °F 16.1 °F 1.9 °F 32% 30.25 in 10.0 mi WNW 19.6 mph - N/A   Clear
3:53 AM 28.9 °F 16.9 °F 1.9 °F 32% 30.26 in 10.0 mi WNW 17.3 mph - N/A   Clear
4:53 AM 28.4 °F 16.2 °F 1.4 °F 31% 30.17 in 10.0 mi NW 17.3 mph - N/A   Clear
5:53 AM 28.4 °F 15.8 °F 1.4 °F 31% 30.17 in 10.0 mi NW 18.4 mph - N/A   Clear
6:53 AM 28.0 °F 18.1 °F 3.9 °F 36% 30.27 in 10.0 mi WNW 11.5 mph - N/A   Clear
7:53 AM 28.0 °F 19.3 °F 5.0 °F 38% 30.28 in 10.0 mi WNW 9.2 mph - N/A   Partly Cloudy
8:53 AM 30.9 °F 21.2 °F 3.9 °F 32% 30.27 in 10.0 mi West 12.7 mph - N/A   Mostly Cloudy
9:53 AM 28.9 °F 19.2 °F 5.0 °F 36% 30.29 in 10.0 mi SW 11.5 mph - N/A   Mostly Cloudy
10:53 AM 30.0 °F 20.0 °F 6.1 °F 36% 30.30 in 10.0 mi SW 12.7 mph - N/A   Mostly Cloudy
11:53 AM 32.0 °F 23.6 °F 6.1 °F 34% 30.28 in 10.0 mi SW 10.4 mph - N/A   Mostly Cloudy
12:53 PM 34.0 °F 27.2 °F 7.0 °F 32% 30.26 in 10.0 mi SW 8.1 mph - N/A   Mostly Cloudy
1:53 PM 37.9 °F 29.6 °F 10.9 °F 33% 30.23 in 10.0 mi NW 13.8 mph - N/A   Mostly Cloudy
2:53 PM 37.4 °F 29.8 °F 14.0 °F 38% 30.12 in 10.0 mi NW 11.5 mph - N/A   Mostly Cloudy
3:53 PM 36.0 °F 29.6 °F 16.0 °F 44% 30.20 in 10.0 mi North 8.1 mph - N/A   Mostly Cloudy
4:53 PM 35.1 °F 31.0 °F 16.0 °F 46% 30.19 in 10.0 mi NNE 4.6 mph - N/A   Mostly Cloudy
5:53 PM 33.1 °F 27.7 °F 14.0 °F 46% 30.17 in 10.0 mi NNW 5.8 mph - N/A   Partly Cloudy
6:53 PM 33.1 °F 26.9 °F 16.0 °F 50% 30.18 in 10.0 mi SW 6.9 mph - N/A   Mostly Cloudy
7:53 PM 35.1 °F 28.6 °F 10.9 °F 37% 30.16 in 10.0 mi SW 8.1 mph - N/A   Overcast
8:53 PM 35.1 °F 25.2 °F 10.9 °F 37% 30.13 in 10.0 mi WSW 16.1 mph - N/A   Overcast
9:53 PM 36.0 °F 27.5 °F 12.9 °F 39% 30.12 in 10.0 mi WSW 12.7 mph 24.2 mph N/A   Overcast
10:53 PM 36.0 °F 27.5 °F 16.0 °F 44% 30.09 in 10.0 mi SW 12.7 mph - N/A   Overcast
11:53 PM 36.0 °F 27.1 °F 14.0 °F 41% 30.07 in 10.0 mi SW 13.8 mph - N/A   Overcast